Regional Weather Roundup
Issued by NWS

Home | Current Version | Previous Version | Graphics & Text | Print | Product List | Glossary On
Versions: 1 2 3 4 5 6 7 8 9 10 11 12 13 14 15 16 17 18 19 20 21 22 23 24 25 26 27 28 29 30 31 32 33 34 35 36 37 38 39 40 41 42 43 44 45 46 47 48 49 50
216
ASUS43 KMPX 231001
RWRMN
WEATHER ROUNDUP FOR MINNESOTA
NATIONAL WEATHER SERVICE TWIN CITIES/CHANHASSEN MN
400 AM CST MON JAN 23 2017


NOTE: "FAIR" INDICATES FEW OR NO CLOUDS BELOW 12,000 FEET WITH NO
SIGNIFICANT WEATHER AND/OR OBSTRUCTIONS TO VISIBILITY. N/A MEANS
CURRENT SKY AND/OR WEATHER CONDITIONS ARE NOT AVAILABLE.

MNZ060>063-068>070-231100-
   Twin Cities Metro

CITY           SKY/WX    TMP DP  RH WIND       PRES   REMARKS
TWIN CITIES    DRIZZLE   33  32  96 W3        29.81F FOG
ST PAUL        CLOUDY    33  33 100 W5        29.82F FOG     WCI  29
CRYSTAL        CLOUDY    33  30  88 W6        29.80S FOG     WCI  28
BLAINE         CLOUDY    36  36 100 W3        29.80F FOG
LAKEVILLE      CLOUDY    30  30 100 W3        29.81S FOG
EDEN PRAIRIE   CLOUDY    33  32  96 W3        29.80S FOG
SOUTH ST PAUL  CLOUDY    33  33  99 CALM      29.81F FOG
LAKE ELMO      CLOUDY    34  34 100 W5        29.81S FOG     WCI  30
$$
MNZ001>005-007-008-013>017-022>024-027-028-231100-
   Northwest Minnesota

CITY           SKY/WX    TMP DP  RH WIND       PRES   REMARKS
BEMIDJI        CLOUDY    30  29  98 W6        29.75S FOG     WCI  24
HALLOCK        CLOUDY    32  30  93 S5        29.75S WCI  27
ROSEAU         CLOUDY    34  28  80 SW5       29.74S FOG     WCI  30
WARROAD        FOG       32  28  86 SW3       29.74S VSB 1/2
THIEF RVR FALL CLOUDY    31  29  92 W8        29.77S WCI  23
CROOKSTON      CLOUDY    32  30  93 W7        29.78S WCI  26
FOSSTON        CLOUDY    28  28 100 SW7       29.77S WCI  21
DETROIT LAKES  CLOUDY    32  30  93 W6        29.79S WCI  26
MOORHEAD       CLOUDY    30  28  93 CALM      29.82R
PARK RAPIDS    CLOUDY    31  27  85 W9        29.76S WCI  23
MAHNOMEN       CLOUDY    30  29  96 W8        29.77S WCI  22
$$
MNZ006-009>011-018-025>026-231100-
   North Central Minnesota

CITY           SKY/WX    TMP DP  RH WIND       PRES   REMARKS
BAUDETTE       CLOUDY    32  32 100 SW3       29.72S FOG
FLAG ISLAND    FLURRIES  32  30  93 SW3       29.71F
INTL FALLS     CLOUDY    34  33  96 W3        29.73R FOG
WASKISH        CLOUDY    32  30  93 SW7       29.75R WCI  26
BIG FORK       CLOUDY    34  32  93 CALM      29.75R FOG
LONGVILLE      FOG       32  32 100 CALM      29.76S VSB 1
GRAND RAPIDS   CLOUDY    34  33  96 W6        29.78R WCI  29
CRANE LAKE     LGT SNOW  30  30 100 CALM      29.76R
ORR            CLOUDY    34  30  86 CALM      29.72R FOG
COOK           FOG       34  34 100 W3        29.75R VSB 1
WALKER         CLOUDY    31  30  94 W5        29.76S WCI  26
$$
MNZ012-019>021-037-231100-
   Northeast Minnesota

CITY           SKY/WX    TMP DP  RH WIND       PRES   REMARKS
DULUTH         FOG       35  34  96 NW7       29.74S VSB 1/2 WCI  29
ELY            CLOUDY    32  32 100 CALM      29.74R
HIBBING        CLOUDY    32  32 100 CALM      29.75R
EVELETH        CLOUDY    34  33  98 CALM      29.76R FOG
DULUTH HARBOR  CLOUDY    36  34  93 SW5       29.78S
TWO HARBORS    CLOUDY    37  32  81 CALM      29.73S
SILVER BAY     CLOUDY    34  34 100 CALM      29.73S
GRAND MARAIS     N/A     35  33  92 CALM      29.75S
G MARAIS ARPRT CLOUDY    30  28  93 CALM      29.72S FOG
$$
MNZ029>031-032-039>041-046>048-054>057-064-231100-
   West Central Minnesota

CITY           SKY/WX    TMP DP  RH WIND       PRES   REMARKS
FERGUS FALLS   CLOUDY    30  30 100 W6        29.84F WCI  24
WHEATON        CLOUDY    39  36  87 W8        29.85S
MORRIS         CLOUDY    34  28  80 NW9       29.82R WCI  26
ALEXANDRIA     CLOUDY    31  29  92 NW8       29.80R WCI  23
ELBOW LAKE     CLOUDY    31  30  96 NW6       29.82R FOG     WCI  25
WADENA         CLOUDY    30  28  93 W5        29.78R WCI  25
GLENWOOD       MOCLDY    30  30 100 W6        29.80F FOG     WCI  24
APPLETON       CLOUDY    36  30  80 NW9       29.83S
ORTONVILLE     CLOUDY    34  28  80 CALM      29.83S
MADISON        CLOUDY    36  34  93 NW10      29.85R
WILLMAR        CLOUDY    34  30  86 CALM      29.83S
$$
MNZ033>034-036-042>043-049>051-058-059-231100-
   Central Minnesota

CITY           SKY/WX    TMP DP  RH WIND       PRES   REMARKS
ST CLOUD       CLOUDY    32  32 100 W5        29.80S FOG     WCI  27
SAUK CENTRE    CLOUDY    31  29  94 W7        29.80S WCI  24
PAYNESVILLE    CLOUDY    32  32 100 W8        29.81S WCI  25
AITKIN         CLOUDY    36  30  80 CALM      29.76F FOG
PINE RIVER     CLOUDY    32  32 100 W3        29.81R FOG
BRAINERD       CLOUDY    32  32 100 W3        29.78S FOG
STAPLES        CLOUDY    30  30 100 W3        29.78S
LONG PRAIRIE   CLOUDY    30  30 100 CALM      29.80R FOG
LITTLE FALLS     N/A    N/A N/A N/A W5          N/A
LITCHFIELD     CLOUDY    34  30  86 W5        29.82S WCI  30
BUFFALO        CLOUDY    32  32  98 W3        29.81F FOG
MAPLE LAKE     CLOUDY    33  33  99 W5        29.81F FOG     WCI  29
HUTCHINSON     CLOUDY    33  33  99 W7        29.83S FOG     WCI  27
$$
MNZ037-044-045-052-053-231100-
   East Central Minnesota

CITY           SKY/WX    TMP DP  RH WIND       PRES   REMARKS
PRINCETON      CLOUDY    34  34 100 CALM      29.80S FOG
MORA           CLOUDY    34  32  93 CALM      29.81S FOG
CAMBRIDGE      CLOUDY    36  36 100 W3        29.78F FOG
RUSH CITY      CLOUDY    32  32 100 W3        29.79F FOG
MOOSE LAKE     CLOUDY    34  32  93 CALM      29.76R
HINCKLEY       CLOUDY    34  34 100 W3        29.79S FOG
CLOQUET        CLOUDY    34  34 100 CALM      29.75S FOG
MCGREGOR       CLOUDY    34  34 100 W3        29.77S
$$
MNZ071>073-080-081-089-090-097-098-231100-
   Southwest Minnesota

CITY           SKY/WX    TMP DP  RH WIND       PRES   REMARKS
MONTEVIDEO     CLOUDY    34  34 100 N8        29.85S WCI  27
GRANITE FALLS  CLOUDY    34  32  92 NW7       29.85F WCI  28
CANBY          CLOUDY    33  31  92 CALM      29.86R
MARSHALL       CLOUDY    33  29  85 NW10      29.85S WCI  25
REDWOOD FALLS  CLOUDY    33  29  85 NW8       29.83S WCI  26
OLIVIA         MOCLDY    32  32 100 NW6       29.83R FOG     WCI  26
PIPESTONE      CLOUDY    32  28  86 NW5       29.83S WCI  27
WINDOM         CLOUDY    34  28  80 W7        29.84R WCI  28
WORTHINGTON    CLOUDY    32  29  88 NW9       29.85R WCI  24
JACKSON        CLOUDY    32  28  86 NW7       29.84S WCI  26
TRACY          CLOUDY    33  31  89 NW7       29.84S WCI  27
SLAYTON        CLOUDY    32  28  87 NW9       29.84S WCI  24
$$
MNZ065>067-074>077-082>085-091>093-231100-
   South Central Minnesota

CITY           SKY/WX    TMP DP  RH WIND       PRES   REMARKS
MANKATO        CLOUDY    32  30  92 W5        29.83S WCI  27
NEW ULM        CLOUDY    32  30  93 W5        29.83S WCI  27
ST JAMES       CLOUDY    34  30  86 W6        29.85S WCI  29
FAIRMONT       CLOUDY    32  28  85 NW8       29.85S WCI  25
GLENCOE        CLOUDY    33  34 100 W6        29.81S FOG     WCI  28
OWATONNA       CLOUDY    32  30  93 W5        29.82S FOG     WCI  27
WASECA         CLOUDY    32  32 100 W6        29.83F FOG     WCI  26
ALBERT LEA     CLOUDY    32  32 100 W5        29.82S FOG     WCI  27
$$
MNZ078>079-086>088-094>096-231100-
   Southeast Minnesota

CITY           SKY/WX    TMP DP  RH WIND       PRES   REMARKS
ROCHESTER      CLOUDY    31  31 100 W9        29.80F FOG     WCI  23
RED WING       CLOUDY    34  32  93 W3        29.81S FOG
STANTON        CLOUDY    33  32  94 CALM      29.80F FOG
DODGE CENTER   CLOUDY    30  30 100 CALM      29.81S FOG
WINONA         CLOUDY    34  32  93 W7        29.82S WCI  28
AUSTIN         CLOUDY    32  30  93 NW8       29.82S FOG     WCI  25
PRESTON        CLOUDY    32  30  94 NW12      29.80F FOG     WCI  23
$$
ABBREVIATIONS USED IN REMARKS
   TC - TEMPERATURES IN CELSIUS
  WCI - WIND CHILL INDEX
   HX - HEAT INDEX
  VSB - VISIBILITY
$$




USA.gov is the U.S. government's official web portal to all federal, state and local government web resources and services.